QPF
0.02 0.02 0.02 0.02 0.02 0.02 0.03 0.02 0.02 0.01 0.01 0.00 0.00 0.00 0.00 0.00 0.00 0.00 0.00 0.00 0.00 0.00 0.00 0.00 0.01 0.01 0.01 0.00 0.00 0.00 0.00 0.00 0.00 0.00 0.01 0.02 0.02 0.02 0.03 0.04 0.04 0.03 0.03 0.03
0.02 0.02 0.02 0.02 0.01 0.02 0.03 0.03 0.02 0.01 0.01 0.01 0.00 0.00 0.00 0.00 0.00 0.00 0.00 0.00 0.00 0.00 0.00 0.00 0.01 0.01 0.01 0.01 0.01 0.00 0.00 0.00 0.00 0.00 0.00 0.01 0.02 0.03 0.02 0.02 0.02 0.02 0.02 0.02
0.03 0.02 0.03 0.03 0.03 0.03 0.04 0.04 0.03 0.02 0.01 0.01 0.01 0.01 0.00 0.00 0.00 0.00 0.00 0.00 0.00 0.00 0.00 0.00 0.00 0.00 0.02 0.02 0.02 0.01 0.01 0.00 0.00 0.01 0.01 0.01 0.02 0.03 0.02 0.02 0.02 0.02 0.02 0.02
0.04 0.03 0.03 0.02 0.02 0.03 0.03 0.04 0.04 0.03 0.02 0.01 0.01 0.01 0.00 0.00 0.00 0.00 0.00 0.00 0.00 0.00 0.00 0.00 0.00 0.00 0.01 0.02 0.02 0.02 0.01 0.01 0.01 0.01 0.01 0.01 0.02 0.02 0.02 0.02 0.02 0.02 0.02 0.02
0.05 0.03 0.02 0.01 0.01 0.02 0.03 0.03 0.03 0.03 0.03 0.03 0.02 0.01 0.01 0.00 0.00 0.00 0.00 0.00 0.00 0.00 0.00 0.00 0.00 0.00 0.00 0.01 0.02 0.02 0.02 0.02 0.02 0.02 0.01 0.01 0.02 0.01 0.01 0.01 0.02 0.02 0.02 0.02
0.05 0.04 0.02 0.02 0.01 0.01 0.01 0.02 0.02 0.03 0.03 0.03 0.03 0.03 0.03 0.02 0.01 0.01 0.00 0.00 0.00 0.00 0.00 0.00 0.00 0.00 0.00 0.01 0.01 0.01 0.01 0.01 0.01 0.01 0.01 0.01 0.01 0.01 0.01 0.01 0.01 0.01 0.02 0.03
0.05 0.04 0.03 0.02 0.01 0.00 0.01 0.02 0.02 0.03 0.03 0.02 0.03 0.04 0.04 0.03 0.02 0.01 0.01 0.00 0.00 0.00 0.00 0.00 0.00 0.00 0.00 0.00 0.01 0.01 0.01 0.01 0.01 0.01 0.01 0.01 0.00 0.00 0.01 0.00 0.01 0.01 0.02 0.03
0.04 0.04 0.03 0.01 0.00 0.01 0.03 0.02 0.03 0.03 0.03 0.03 0.04 0.04 0.04 0.03 0.02 0.02 0.02 0.01 0.01 0.00 0.00 0.00 0.00 0.00 0.00 0.00 0.00 0.00 0.01 0.01 0.01 0.01 0.01 0.01 0.01 0.01 0.01 0.01 0.01 0.01 0.02 0.03
0.03 0.02 0.02 0.01 0.01 0.02 0.02 0.02 0.02 0.02 0.03 0.03 0.04 0.04 0.05 0.04 0.03 0.03 0.02 0.02 0.02 0.01 0.01 0.00 0.00 0.00 0.00 0.00 0.00 0.00 0.00 0.00 0.01 0.01 0.01 0.00 0.00 0.01 0.01 0.01 0.01 0.01 0.02 0.03
0.02 0.02 0.01 0.01 0.01 0.01 0.01 0.01 0.01 0.01 0.01 0.02 0.02 0.03 0.02 0.02 0.02 0.01 0.01 0.01 0.01 0.01 0.02 0.02 0.02 0.01 0.01 0.01 0.01 0.00 0.00 0.00 0.00 0.00 0.00 0.00 0.00 0.01 0.01 0.01 0.01 0.01 0.01 0.02
0.02 0.01 0.01 0.01 0.00 0.00 0.01 0.01 0.01 0.00 0.01 0.01 0.01 0.01 0.01 0.01 0.01 0.01 0.01 0.01 0.01 0.01 0.02 0.02 0.02 0.02 0.01 0.01 0.00 0.00 0.00 0.00 0.00 0.00 0.00 0.01 0.01 0.01 0.01 0.01 0.01 0.01 0.01 0.01
0.01 0.01 0.01 0.01 0.01 0.01 0.01 0.01 0.00 0.00 0.00 0.00 0.00 0.00 0.01 0.01 0.01 0.02 0.02 0.03 0.02 0.02 0.02 0.02 0.01 0.01 0.00 0.00 0.00 0.00 0.00 0.00 0.00 0.00 0.00 0.00 0.01 0.01 0.01 0.01 0.01 0.01 0.01 0.01
0.01 0.01 0.01 0.01 0.01 0.01 0.01 0.01 0.01 0.01 0.01 0.00 0.00 0.00 0.01 0.01 0.01 0.01 0.02 0.02 0.02 0.02 0.01 0.01 0.01 0.01 0.00 0.00 0.00 0.00 0.01 0.00 0.00 0.00 0.00 0.00 0.00 0.01 0.01 0.00 0.01 0.01 0.01 0.01
0.01 0.01 0.01 0.01 0.01 0.01 0.01 0.01 0.00 0.00 0.00 0.00 0.00 0.00 0.00 0.00 0.00 0.01 0.01 0.01 0.01 0.00 0.00 0.01 0.01 0.01 0.01 0.00 0.00 0.00 0.00 0.00 0.00 0.00 0.00 0.00 0.00 0.01 0.01 0.00 0.00 0.00 0.01 0.01
0.01 0.01 0.01 0.01 0.01 0.01 0.00 0.00 0.00 0.00 0.00 0.00 0.00 0.00 0.00 0.00 0.00 0.00 0.00 0.00 0.00 0.00 0.00 0.00 0.00 0.00 0.00 0.00 0.01 0.01 0.00 0.00 0.01 0.01 0.01 0.01 0.01 0.01 0.01 0.01 0.01 0.01 0.01 0.01
0.02 0.02 0.01 0.01 0.00 0.00 0.00 0.00 0.00 0.00 0.00 0.00 0.00 0.00 0.00 0.01 0.00 0.00 0.00 0.00 0.00 0.00 0.00 0.00 0.00 0.00 0.00 0.00 0.00 0.00 0.01 0.01 0.01 0.01 0.01 0.01 0.01 0.01 0.01 0.01 0.01 0.01 0.01 0.01
0.01 0.01 0.01 0.00 0.00 0.00 0.00 0.00 0.00 0.00 0.00 0.00 0.00 0.01 0.01 0.01 0.01 0.01 0.01 0.01 0.01 0.00 0.00 0.00 0.00 0.00 0.00 0.00 0.01 0.01 0.01 0.01 0.01 0.01 0.01 0.01 0.01 0.01 0.01 0.01 0.01 0.01 0.00 0.01
0.01 0.01 0.01 0.00 0.00 0.00 0.00 0.00 0.00 0.00 0.00 0.01 0.01 0.01 0.01 0.01 0.01 0.00 0.00 0.00 0.00 0.00 0.00 0.00 0.00 0.01 0.00 0.00 0.01 0.01 0.01 0.01 0.01 0.01 0.01 0.01 0.01 0.01 0.01 0.01 0.01 0.01 0.01 0.01
0.01 0.01 0.01 0.01 0.01 0.01 0.01 0.01 0.01 0.01 0.01 0.01 0.01 0.01 0.01 0.01 0.00 0.00 0.00 0.00 0.00 0.00 0.00 0.01 0.01 0.01 0.00 0.01 0.01 0.01 0.01 0.01 0.01 0.01 0.01 0.01 0.01 0.02 0.02 0.02 0.01 0.01 0.01 0.01
0.01 0.01 0.01 0.01 0.01 0.01 0.01 0.01 0.01 0.01 0.01 0.01 0.01 0.01 0.00 0.00 0.00 0.00 0.00 0.00 0.00 0.01 0.01 0.01 0.01 0.01 0.01 0.01 0.01 0.01 0.01 0.02 0.01 0.01 0.01 0.01 0.02 0.02 0.02 0.02 0.01 0.01 0.01 0.01
0.01 0.01 0.01 0.00 0.01 0.01 0.01 0.01 0.01 0.01 0.01 0.01 0.00 0.00 0.00 0.00 0.00 0.00 0.00 0.00 0.00 0.00 0.01 0.01 0.01 0.01 0.01 0.01 0.01 0.01 0.01 0.01 0.02 0.01 0.01 0.02 0.02 0.02 0.02 0.02 0.02 0.01 0.01 0.01
0.00 0.00 0.00 0.00 0.00 0.00 0.00 0.00 0.00 0.00 0.00 0.00 0.00 0.00 0.00 0.00 0.00 0.00 0.00 0.00 0.00 0.01 0.01 0.01 0.01 0.02 0.02 0.01 0.01 0.01 0.01 0.01 0.02 0.02 0.02 0.02 0.02 0.02 0.02 0.02 0.02 0.01 0.01 0.01
0.01 0.00 0.00 0.00 0.00 0.00 0.00 0.00 0.00 0.00 0.00 0.00 0.00 0.00 0.00 0.00 0.00 0.00 0.00 0.00 0.00 0.01 0.01 0.01 0.01 0.02 0.02 0.02 0.02 0.01 0.01 0.01 0.01 0.02 0.02 0.02 0.02 0.02 0.02 0.02 0.02 0.01 0.01 0.01
0.00 0.00 0.00 0.00 0.00 0.00 0.00 0.00 0.00 0.00 0.00 0.00 0.00 0.00 0.00 0.00 0.00 0.00 0.00 0.00 0.01 0.01 0.01 0.01 0.02 0.02 0.02 0.02 0.01 0.01 0.01 0.01 0.02 0.02 0.02 0.02 0.02 0.02 0.03 0.02 0.02 0.02 0.01 0.01
0.00 0.00 0.00 0.00 0.00 0.00 0.00 0.00 0.00 0.00 0.00 0.00 0.00 0.00 0.01 0.01 0.01 0.01 0.00 0.01 0.01 0.01 0.01 0.01 0.01 0.01 0.01 0.01 0.01 0.01 0.01 0.01 0.02 0.02 0.03 0.02 0.02 0.02 0.02 0.02 0.02 0.02 0.01 0.01
0.00 0.00 0.00 0.00 0.00 0.01 0.01 0.00 0.00 0.00 0.00 0.00 0.00 0.00 0.00 0.01 0.02 0.01 0.01 0.01 0.01 0.01 0.01 0.01 0.01 0.01 0.01 0.01 0.01 0.01 0.01 0.01 0.02 0.02 0.03 0.02 0.02 0.02 0.02 0.02 0.02 0.01 0.01 0.01
0.00 0.00 0.00 0.00 0.01 0.01 0.01 0.01 0.01 0.01 0.01 0.01 0.00 0.00 0.00 0.01 0.01 0.01 0.01 0.01 0.01 0.01 0.01 0.01 0.01 0.01 0.01 0.01 0.01 0.01 0.01 0.01 0.02 0.02 0.02 0.02 0.02 0.02 0.02 0.02 0.01 0.01 0.01 0.01
MSLP
1006.63 1006.22 1005.82 1005.42 1005.03 1004.65 1004.29 1003.96 1003.67 1003.43 1003.24 1003.10 1002.99 1002.88 1002.73 1002.52 1002.21 1001.80 1001.29 1000.68 1000.02 999.33 998.66 998.05 997.51 997.06 996.71 996.43 996.22 996.05 995.92 995.83 995.76 995.75 995.79 995.91 996.12 996.42 996.81 997.27 997.81 998.42 999.07 999.77
1007.26 1006.86 1006.45 1006.04 1005.64 1005.26 1004.91 1004.61 1004.36 1004.17 1004.02 1003.91 1003.81 1003.69 1003.51 1003.24 1002.87 1002.40 1001.82 1001.17 1000.47 999.77 999.10 998.48 997.95 997.49 997.11 996.80 996.53 996.29 996.08 995.90 995.76 995.67 995.65 995.73 995.90 996.17 996.54 997.00 997.53 998.12 998.77 999.46
1007.81 1007.44 1007.07 1006.69 1006.31 1005.97 1005.66 1005.40 1005.19 1005.05 1004.93 1004.85 1004.74 1004.60 1004.38 1004.06 1003.63 1003.10 1002.47 1001.79 1001.07 1000.37 999.71 999.11 998.59 998.14 997.76 997.43 997.13 996.84 996.58 996.34 996.14 995.99 995.92 995.95 996.08 996.32 996.66 997.09 997.60 998.17 998.79 999.46
1008.22 1007.92 1007.61 1007.29 1006.99 1006.70 1006.46 1006.26 1006.12 1006.02 1005.94 1005.87 1005.77 1005.60 1005.34 1004.98 1004.51 1003.93 1003.27 1002.57 1001.85 1001.15 1000.51 999.94 999.44 999.01 998.64 998.30 997.98 997.68 997.39 997.11 996.88 996.69 996.59 996.58 996.68 996.89 997.19 997.59 998.06 998.59 999.17 999.80
1008.50 1008.29 1008.07 1007.85 1007.63 1007.44 1007.29 1007.18 1007.11 1007.07 1007.04 1006.99 1006.89 1006.71 1006.43 1006.04 1005.54 1004.94 1004.26 1003.55 1002.83 1002.15 1001.53 1000.97 1000.49 1000.08 999.71 999.38 999.06 998.74 998.44 998.15 997.90 997.70 997.58 997.55 997.62 997.80 998.07 998.42 998.85 999.34 999.87 1000.45
1008.72 1008.60 1008.49 1008.37 1008.27 1008.20 1008.15 1008.14 1008.16 1008.19 1008.21 1008.20 1008.12 1007.94 1007.66 1007.26 1006.75 1006.13 1005.46 1004.74 1004.04 1003.37 1002.75 1002.21 1001.73 1001.32 1000.95 1000.61 1000.29 999.97 999.65 999.36 999.10 998.90 998.77 998.73 998.79 998.94 999.18 999.50 999.89 1000.32 1000.81 1001.33
1008.93 1008.93 1008.93 1008.93 1008.96 1009.00 1009.07 1009.17 1009.27 1009.38 1009.46 1009.49 1009.45 1009.29 1009.02 1008.63 1008.12 1007.52 1006.85 1006.15 1005.45 1004.79 1004.18 1003.63 1003.15 1002.72 1002.33 1001.97 1001.62 1001.28 1000.96 1000.65 1000.39 1000.18 1000.05 1000.01 1000.05 1000.19 1000.40 1000.69 1001.04 1001.43 1001.86 1002.32
1009.25 1009.35 1009.46 1009.59 1009.73 1009.89 1010.07 1010.26 1010.45 1010.63 1010.77 1010.85 1010.84 1010.71 1010.47 1010.10 1009.62 1009.04 1008.40 1007.72 1007.04 1006.38 1005.77 1005.21 1004.70 1004.24 1003.81 1003.41 1003.03 1002.66 1002.30 1001.98 1001.70 1001.49 1001.35 1001.29 1001.33 1001.44 1001.63 1001.89 1002.20 1002.54 1002.92 1003.32
1009.75 1009.95 1010.16 1010.38 1010.62 1010.88 1011.14 1011.41 1011.66 1011.90 1012.08 1012.20 1012.22 1012.13 1011.92 1011.58 1011.14 1010.60 1010.00 1009.35 1008.70 1008.05 1007.44 1006.87 1006.34 1005.84 1005.37 1004.92 1004.48 1004.06 1003.67 1003.32 1003.01 1002.77 1002.61 1002.54 1002.55 1002.64 1002.80 1003.02 1003.28 1003.58 1003.90 1004.25
1010.48 1010.76 1011.05 1011.34 1011.65 1011.96 1012.27 1012.58 1012.87 1013.13 1013.34 1013.47 1013.51 1013.45 1013.27 1012.98 1012.58 1012.09 1011.54 1010.94 1010.33 1009.72 1009.12 1008.55 1007.99 1007.46 1006.95 1006.45 1005.97 1005.50 1005.06 1004.66 1004.31 1004.04 1003.84 1003.73 1003.71 1003.76 1003.88 1004.05 1004.26 1004.50 1004.76 1005.04
1011.46 1011.79 1012.12 1012.46 1012.78 1013.11 1013.43 1013.73 1014.01 1014.26 1014.46 1014.59 1014.64 1014.59 1014.43 1014.18 1013.83 1013.40 1012.91 1012.38 1011.82 1011.26 1010.70 1010.14 1009.60 1009.05 1008.52 1007.98 1007.45 1006.94 1006.45 1006.01 1005.62 1005.30 1005.06 1004.90 1004.83 1004.83 1004.89 1005.00 1005.15 1005.32 1005.50 1005.70
1012.65 1013.01 1013.35 1013.68 1013.99 1014.28 1014.56 1014.82 1015.06 1015.26 1015.42 1015.52 1015.55 1015.50 1015.36 1015.13 1014.83 1014.46 1014.04 1013.58 1013.09 1012.60 1012.09 1011.58 1011.06 1010.53 1010.00 1009.45 1008.90 1008.36 1007.84 1007.35 1006.92 1006.56 1006.27 1006.06 1005.92 1005.86 1005.85 1005.89 1005.96 1006.05 1006.15 1006.27
1013.99 1014.35 1014.66 1014.94 1015.19 1015.42 1015.63 1015.82 1015.98 1016.12 1016.22 1016.27 1016.27 1016.20 1016.06 1015.85 1015.58 1015.27 1014.91 1014.52 1014.11 1013.68 1013.25 1012.79 1012.33 1011.84 1011.33 1010.80 1010.25 1009.71 1009.17 1008.67 1008.21 1007.80 1007.46 1007.20 1007.01 1006.87 1006.79 1006.75 1006.74 1006.74 1006.76 1006.78
1015.38 1015.70 1015.96 1016.18 1016.35 1016.49 1016.62 1016.72 1016.80 1016.86 1016.90 1016.89 1016.84 1016.74 1016.59 1016.39 1016.14 1015.86 1015.55 1015.22 1014.87 1014.51 1014.14 1013.76 1013.35 1012.92 1012.45 1011.96 1011.45 1010.92 1010.39 1009.88 1009.41 1008.98 1008.61 1008.30 1008.05 1007.86 1007.71 1007.59 1007.50 1007.41 1007.34 1007.27
1016.72 1016.98 1017.18 1017.32 1017.41 1017.47 1017.51 1017.53 1017.54 1017.53 1017.50 1017.44 1017.34 1017.21 1017.04 1016.82 1016.58 1016.31 1016.02 1015.72 1015.42 1015.11 1014.79 1014.46 1014.11 1013.73 1013.32 1012.88 1012.41 1011.91 1011.41 1010.92 1010.45 1010.02 1009.63 1009.29 1009.01 1008.77 1008.56 1008.38 1008.22 1008.06 1007.91 1007.77
1017.90 1018.11 1018.24 1018.30 1018.33 1018.32 1018.30 1018.26 1018.21 1018.16 1018.08 1017.98 1017.84 1017.67 1017.46 1017.22 1016.96 1016.67 1016.38 1016.09 1015.79 1015.50 1015.21 1014.92 1014.61 1014.27 1013.91 1013.51 1013.09 1012.64 1012.18 1011.72 1011.27 1010.85 1010.47 1010.12 1009.81 1009.54 1009.30 1009.08 1008.86 1008.65 1008.45 1008.24
1018.87 1019.02 1019.09 1019.11 1019.09 1019.04 1018.98 1018.92 1018.84 1018.76 1018.65 1018.53 1018.36 1018.15 1017.91 1017.63 1017.33 1017.01 1016.68 1016.35 1016.04 1015.73 1015.44 1015.15 1014.85 1014.54 1014.22 1013.86 1013.48 1013.08 1012.66 1012.24 1011.82 1011.43 1011.06 1010.72 1010.41 1010.13 1009.87 1009.62 1009.38 1009.13 1008.89 1008.64
1019.61 1019.71 1019.74 1019.73 1019.68 1019.62 1019.55 1019.48 1019.41 1019.32 1019.21 1019.06 1018.87 1018.64 1018.35 1018.03 1017.67 1017.29 1016.91 1016.53 1016.17 1015.82 1015.50 1015.19 1014.89 1014.58 1014.27 1013.94 1013.59 1013.22 1012.84 1012.46 1012.08 1011.71 1011.37 1011.05 1010.75 1010.47 1010.21 1009.95 1009.70 1009.45 1009.18 1008.92
1020.11 1020.18 1020.20 1020.17 1020.12 1020.06 1020.00 1019.94 1019.87 1019.79 1019.68 1019.52 1019.31 1019.05 1018.72 1018.35 1017.94 1017.50 1017.05 1016.60 1016.18 1015.78 1015.41 1015.06 1014.73 1014.42 1014.10 1013.78 1013.45 1013.12 1012.77 1012.42 1012.07 1011.73 1011.41 1011.10 1010.81 1010.54 1010.29 1010.04 1009.79 1009.53 1009.27 1009.01
1020.46 1020.51 1020.50 1020.47 1020.42 1020.36 1020.31 1020.26 1020.20 1020.12 1020.00 1019.83 1019.60 1019.30 1018.94 1018.52 1018.05 1017.55 1017.05 1016.54 1016.06 1015.60 1015.18 1014.80 1014.44 1014.11 1013.79 1013.47 1013.15 1012.83 1012.50 1012.16 1011.83 1011.51 1011.20 1010.91 1010.63 1010.37 1010.11 1009.86 1009.62 1009.37 1009.11 1008.86
1020.73 1020.75 1020.73 1020.68 1020.61 1020.55 1020.49 1020.43 1020.36 1020.26 1020.12 1019.93 1019.67 1019.34 1018.94 1018.48 1017.97 1017.42 1016.87 1016.32 1015.80 1015.30 1014.85 1014.44 1014.06 1013.71 1013.38 1013.05 1012.74 1012.42 1012.09 1011.77 1011.44 1011.12 1010.81 1010.51 1010.22 1009.95 1009.69 1009.44 1009.20 1008.95 1008.71 1008.46
1020.98 1020.97 1020.91 1020.83 1020.74 1020.65 1020.56 1020.46 1020.35 1020.21 1020.03 1019.80 1019.50 1019.13 1018.69 1018.20 1017.66 1017.10 1016.52 1015.95 1015.41 1014.89 1014.43 1014.00 1013.61 1013.25 1012.91 1012.59 1012.26 1011.94 1011.61 1011.27 1010.93 1010.59 1010.26 1009.94 1009.64 1009.35 1009.07 1008.80 1008.55 1008.30 1008.06 1007.83
1021.26 1021.20 1021.10 1020.97 1020.83 1020.67 1020.52 1020.36 1020.18 1019.98 1019.74 1019.45 1019.11 1018.70 1018.24 1017.73 1017.18 1016.61 1016.03 1015.46 1014.92 1014.41 1013.95 1013.52 1013.13 1012.77 1012.42 1012.09 1011.75 1011.41 1011.06 1010.70 1010.33 1009.97 1009.60 1009.24 1008.90 1008.57 1008.26 1007.97 1007.70 1007.45 1007.22 1007.00
1021.57 1021.46 1021.29 1021.09 1020.88 1020.65 1020.41 1020.16 1019.90 1019.63 1019.32 1018.97 1018.58 1018.14 1017.66 1017.14 1016.59 1016.03 1015.47 1014.92 1014.40 1013.91 1013.45 1013.04 1012.65 1012.28 1011.93 1011.57 1011.22 1010.85 1010.46 1010.07 1009.66 1009.24 1008.83 1008.42 1008.03 1007.66 1007.31 1007.00 1006.71 1006.45 1006.22 1006.02
1021.89 1021.70 1021.47 1021.20 1020.90 1020.58 1020.25 1019.92 1019.58 1019.22 1018.84 1018.44 1018.01 1017.54 1017.05 1016.53 1016.00 1015.45 1014.92 1014.39 1013.89 1013.42 1012.98 1012.57 1012.17 1011.79 1011.42 1011.04 1010.65 1010.24 1009.81 1009.36 1008.90 1008.43 1007.96 1007.50 1007.06 1006.64 1006.25 1005.91 1005.60 1005.34 1005.12 1004.94
1022.14 1021.90 1021.59 1021.25 1020.87 1020.48 1020.07 1019.66 1019.25 1018.82 1018.39 1017.95 1017.49 1017.01 1016.51 1016.00 1015.48 1014.96 1014.44 1013.94 1013.46 1012.99 1012.55 1012.12 1011.71 1011.30 1010.89 1010.47 1010.03 1009.57 1009.09 1008.59 1008.07 1007.54 1007.01 1006.50 1006.01 1005.55 1005.13 1004.76 1004.44 1004.18 1003.97 1003.82
1022.29 1021.98 1021.63 1021.22 1020.79 1020.33 1019.87 1019.41 1018.94 1018.48 1018.01 1017.55 1017.07 1016.59 1016.10 1015.60 1015.10 1014.59 1014.09 1013.59 1013.11 1012.63 1012.17 1011.71 1011.26 1010.81 1010.34 1009.87 1009.37 1008.85 1008.32 1007.76 1007.18 1006.60 1006.03 1005.47 1004.93 1004.44 1003.99 1003.60 1003.28 1003.02 1002.84 1002.72
Thickness
5451 5457 5458 5462 5465 5466 5471 5485 5494 5509 5511 5517 5516 5514 5515 5515 5515 5515 5515 5514 5514 5514 5513 5512 5511 5510 5508 5507 5506 5505 5504 5503 5501 5499 5498 5496 5495 5494 5492 5491 5490 5489 5488 5487
5438 5446 5448 5452 5460 5464 5468 5476 5483 5490 5496 5503 5503 5501 5502 5503 5502 5503 5503 5502 5501 5501 5501 5500 5499 5497 5496 5495 5493 5493 5492 5491 5489 5487 5486 5484 5483 5482 5480 5479 5478 5477 5476 5476
5435 5434 5435 5447 5458 5459 5463 5469 5475 5479 5487 5486 5484 5484 5486 5488 5488 5489 5489 5488 5488 5489 5488 5487 5486 5484 5483 5482 5481 5480 5479 5478 5476 5475 5474 5472 5471 5470 5469 5468 5467 5466 5465 5465
5418 5419 5425 5452 5449 5452 5455 5460 5460 5464 5468 5469 5469 5470 5471 5473 5476 5477 5476 5475 5475 5475 5474 5473 5472 5470 5469 5469 5468 5466 5466 5465 5463 5462 5462 5460 5459 5458 5457 5456 5455 5455 5455 5454
5407 5417 5432 5440 5436 5436 5439 5446 5447 5449 5452 5454 5453 5456 5461 5460 5461 5461 5461 5461 5460 5460 5459 5458 5457 5456 5456 5456 5455 5454 5453 5452 5450 5449 5448 5448 5447 5446 5445 5444 5443 5443 5443 5443
5397 5406 5418 5430 5427 5428 5431 5436 5437 5437 5440 5439 5440 5450 5452 5445 5445 5446 5446 5446 5445 5444 5444 5445 5444 5443 5444 5444 5443 5441 5440 5438 5437 5436 5435 5435 5434 5433 5432 5431 5431 5431 5432 5432
5391 5399 5415 5417 5413 5419 5422 5426 5424 5426 5427 5427 5429 5433 5431 5429 5430 5431 5431 5430 5429 5430 5431 5431 5430 5430 5431 5431 5429 5427 5426 5424 5423 5423 5423 5422 5421 5420 5419 5419 5419 5420 5421 5421
5386 5389 5401 5402 5402 5408 5411 5411 5412 5414 5415 5414 5415 5414 5414 5416 5416 5416 5415 5415 5415 5416 5416 5416 5416 5417 5418 5417 5416 5414 5413 5412 5412 5411 5410 5409 5409 5408 5407 5407 5408 5409 5409 5410
5386 5392 5392 5391 5394 5396 5397 5399 5401 5403 5403 5402 5401 5401 5401 5401 5401 5401 5400 5400 5400 5401 5401 5401 5401 5402 5404 5403 5402 5401 5401 5400 5400 5399 5398 5397 5397 5397 5396 5396 5396 5397 5397 5398
5372 5381 5381 5380 5383 5383 5384 5386 5387 5387 5387 5388 5388 5387 5387 5387 5387 5386 5386 5385 5385 5386 5387 5387 5387 5387 5388 5388 5388 5388 5389 5388 5388 5387 5387 5386 5385 5385 5384 5384 5384 5384 5384 5385
5366 5371 5371 5373 5373 5372 5372 5372 5372 5372 5372 5373 5373 5373 5374 5373 5373 5372 5371 5371 5371 5372 5373 5373 5373 5374 5374 5374 5375 5376 5376 5376 5375 5375 5375 5375 5374 5373 5372 5372 5370 5371 5372 5372
5365 5365 5366 5366 5361 5360 5360 5360 5359 5359 5359 5358 5359 5359 5360 5359 5358 5358 5357 5357 5357 5358 5359 5360 5360 5361 5361 5361 5362 5363 5364 5364 5364 5364 5363 5364 5364 5364 5362 5361 5361 5360 5360 5360
5348 5349 5350 5349 5346 5346 5347 5347 5346 5346 5345 5345 5345 5345 5345 5344 5344 5344 5344 5344 5345 5345 5346 5347 5348 5348 5348 5348 5349 5350 5351 5352 5352 5352 5353 5353 5353 5354 5355 5355 5353 5352 5352 5352
5331 5335 5337 5336 5334 5333 5333 5333 5333 5332 5332 5331 5331 5331 5331 5331 5331 5331 5331 5332 5332 5333 5334 5335 5336 5336 5336 5336 5337 5338 5339 5340 5340 5341 5341 5341 5341 5342 5342 5344 5346 5347 5346 5345
5319 5322 5323 5322 5321 5320 5321 5322 5322 5321 5321 5320 5319 5319 5319 5319 5319 5319 5319 5320 5321 5322 5323 5324 5325 5325 5325 5325 5326 5327 5328 5329 5330 5330 5330 5330 5331 5331 5332 5332 5334 5336 5338 5339
5309 5310 5310 5310 5310 5311 5311 5311 5311 5310 5309 5308 5307 5307 5306 5306 5306 5307 5307 5308 5309 5311 5312 5312 5313 5314 5314 5314 5316 5317 5318 5318 5318 5320 5321 5321 5321 5321 5322 5323 5325 5326 5328 5329
5301 5303 5302 5302 5301 5301 5300 5300 5299 5298 5297 5296 5296 5295 5294 5295 5296 5297 5297 5297 5298 5299 5301 5302 5303 5304 5304 5305 5306 5308 5309 5309 5309 5309 5310 5310 5311 5312 5313 5314 5315 5317 5319 5319
5291 5292 5292 5291 5291 5290 5289 5288 5287 5286 5285 5285 5284 5283 5284 5284 5285 5286 5286 5287 5288 5290 5292 5293 5293 5294 5295 5296 5297 5298 5299 5299 5300 5300 5300 5301 5302 5303 5305 5306 5308 5309 5311 5312
5281 5280 5280 5280 5279 5278 5277 5276 5275 5274 5273 5273 5273 5273 5273 5273 5274 5274 5275 5277 5279 5282 5283 5283 5283 5285 5286 5287 5287 5289 5289 5290 5290 5290 5291 5292 5294 5295 5297 5298 5300 5301 5303 5304
5271 5270 5269 5268 5267 5266 5265 5265 5264 5263 5262 5262 5262 5262 5262 5263 5263 5264 5266 5268 5270 5272 5272 5273 5275 5276 5277 5278 5279 5280 5280 5281 5281 5282 5283 5284 5286 5288 5289 5290 5292 5294 5295 5297
5262 5261 5259 5258 5257 5256 5255 5254 5254 5253 5253 5252 5252 5252 5252 5253 5254 5255 5257 5261 5263 5262 5263 5265 5267 5268 5269 5270 5270 5271 5272 5272 5273 5274 5275 5276 5278 5280 5281 5283 5285 5286 5288 5290
5252 5251 5250 5249 5248 5247 5246 5245 5244 5244 5244 5244 5244 5244 5244 5246 5247 5249 5250 5252 5254 5255 5256 5258 5259 5261 5262 5262 5263 5264 5264 5264 5265 5267 5268 5269 5270 5272 5274 5276 5278 5280 5282 5284
5244 5243 5242 5241 5240 5239 5238 5237 5237 5237 5237 5237 5237 5238 5239 5240 5241 5243 5246 5246 5247 5248 5250 5251 5253 5254 5255 5255 5256 5256 5257 5257 5258 5259 5261 5262 5263 5265 5267 5269 5271 5274 5276 5279
5236 5235 5234 5232 5231 5231 5231 5232 5230 5231 5230 5230 5231 5231 5232 5234 5236 5237 5238 5239 5240 5242 5243 5244 5246 5248 5248 5248 5248 5249 5250 5251 5252 5253 5254 5256 5258 5260 5262 5264 5266 5269 5271 5274
5228 5227 5226 5226 5227 5227 5226 5225 5225 5225 5226 5227 5227 5227 5227 5229 5230 5231 5232 5233 5234 5236 5237 5239 5240 5241 5240 5240 5241 5242 5243 5245 5246 5247 5249 5250 5253 5255 5257 5259 5262 5265 5267 5270
5221 5222 5222 5221 5220 5220 5220 5221 5221 5222 5222 5223 5223 5223 5224 5224 5225 5226 5227 5228 5229 5230 5231 5232 5233 5233 5234 5234 5235 5236 5238 5239 5241 5242 5244 5246 5248 5251 5253 5256 5258 5261 5264 5266
5216 5216 5216 5216 5216 5216 5216 5216 5216 5217 5217 5217 5218 5219 5219 5220 5220 5221 5222 5223 5224 5225 5226 5227 5227 5228 5228 5229 5231 5232 5233 5235 5237 5238 5240 5243 5245 5248 5251 5253 5256 5259 5261 5264